Location: Warner Observatory
(35.1353°N, 89.5455°W)
Time: 02:04:47
(UTC-05:00)

Amateur Radio Satellites - All Passes

Search period start: 21 October 2014 01:34
Search period end: 22 October 2014 01:34
Location: Warner Observatory, 35.1353°N, 89.5455°W

Satellite Date Start Highest point End Downlink Frequencies (MHz)
Time Altitude Azimuth
AO-Echo 21 Oct 02:00:58 02:04:51 20° 94° (E) 02:08:42 ?
Oscar 19 21 Oct 02:24:02 02:29:08 67° 102° (ESE) 02:34:12 437.125 CW, 437.150 USB
AO-27 21 Oct 02:31:14 02:35:49 30° 97° (E) 02:40:22 436.795 MHz FM
UOSAT-12 21 Oct 02:45:43 02:46:26 10° 254° (WSW) 02:47:09 437.025 FM, 437.400 FM
Oscar 16 21 Oct 03:09:18 03:14:05 42° 288° (WNW) 03:18:52 437.025 USB, Beacon 2401.1428
JAS-1B 21 Oct 03:20:00 03:26:26 60° 287° (WNW) 03:34:05 435.800 - 435.900 CW/SSB
Gurwin Techsat 1B 21 Oct 03:20:17 03:25:24 47° 99° (E) 03:30:29 435.225 FM
Uribyol 2 21 Oct 03:20:45 03:25:59 81° 285° (WNW) 03:31:10 436.500 FM
PCSat 21 Oct 03:25:13 03:27:04 12° 102° (ESE) 03:28:54 145.825 MHz
ITAMSAT 1 21 Oct 03:25:39 03:30:53 78° 285° (WNW) 03:36:05 435.822 SSB
TMSAT-1 21 Oct 03:34:22 03:39:28 47° 99° (E) 03:44:33 436.925 FM
RS-15 21 Oct 03:36:19 03:39:57 12° 352° (N) 03:43:36 29.354 - 29.394 USB, Beacon 29.352 USB
AO-Echo 21 Oct 03:38:43 03:43:42 43° 288° (WNW) 03:48:42 ?
Oscar 19 21 Oct 04:05:39 04:07:51 13° 297° (WNW) 04:10:03 437.125 CW, 437.150 USB
AO-27 21 Oct 04:10:47 04:15:11 28° 292° (WNW) 04:19:34 436.795 MHz FM
OPAL 21 Oct 04:11:34 04:15:07 19° 64° (ENE) 04:18:39 ?
AO-7 21 Oct 04:35:20 04:43:00 39° 100° (E) 04:50:37 29.400 - 29.500 MHz
Sapphire 21 Oct 04:41:24 04:46:43 63° 113° (ESE) 04:52:04 437.095 MHz 1200 baud AX-25 AFSK
Gurwin Techsat 1B 21 Oct 05:01:18 05:04:58 19° 294° (WNW) 05:08:38 435.225 FM
PCSat 21 Oct 05:04:22 05:09:45 74° 297° (WNW) 05:15:11 145.825 MHz
TMSAT-1 21 Oct 05:15:20 05:18:59 19° 294° (WNW) 05:22:38 436.925 FM
Uosat F 21 Oct 05:19:39 05:24:43 71° 102° (ESE) 05:29:44 435.120 FM
OPAL 21 Oct 05:48:38 05:53:36 47° 258° (WSW) 05:58:33 ?
STRAND 1 21 Oct 05:49:46 05:52:43 16° 64° (ENE) 05:55:41 ?
RS-15 21 Oct 05:51:39 05:59:05 19° 30° (NNE) 06:06:39 29.354 - 29.394 USB, Beacon 29.352 USB
Hamsat 21 Oct 06:03:24 06:06:49 24° 96° (E) 06:10:14 145.90 MHz
JAS-2 21 Oct 06:07:09 06:14:45 56° 100° (E) 06:22:22 435.800 - 435.900 CW/SSB, 435.910 FM
Sapphire 21 Oct 06:27:02 06:30:34 17° 310° (NW) 06:34:08 437.095 MHz 1200 baud AX-25 AFSK
AO-7 21 Oct 06:28:04 06:35:41 42° 296° (WNW) 06:43:19 29.400 - 29.500 MHz
PCSat 21 Oct 06:53:07 06:54:05 10° 315° (NW) 06:55:04 145.825 MHz
Uosat F 21 Oct 07:00:59 07:02:50 12° 297° (WNW) 07:04:41 435.120 FM
SO-67 21 Oct 07:02:51 07:03:52 11° 93° (E) 07:04:53 435.3500 MHz FM
STRAND 1 21 Oct 07:26:23 07:31:23 55° 259° (W) 07:36:27 ?
Hamsat 21 Oct 07:39:22 07:42:38 22° 290° (WNW) 07:45:54 145.90 MHz
JAS-2 21 Oct 07:52:53 07:59:16 30° 295° (WNW) 08:05:45 435.800 - 435.900 CW/SSB, 435.910 FM
RS-15 21 Oct 08:03:02 08:14:10 65° 57° (ENE) 08:25:46 29.354 - 29.394 USB, Beacon 29.352 USB
PANSAT 21 Oct 08:26:29 08:28:08 12° 160° (SSE) 08:29:47 not established
SO-67 21 Oct 08:33:51 08:36:55 30° 286° (WNW) 08:39:58 435.3500 MHz FM
Saudisat 1A 21 Oct 08:40:01 08:44:24 90° 118° (ESE) 08:48:49 436.775 MHz
HO-68 21 Oct 09:39:05 09:46:07 54° 102° (ESE) 09:53:05 435.675 MHz FM
Oscar 11 21 Oct 09:40:40 09:43:06 15° 93° (E) 09:45:31 145.825 FM, Beacon 2401.500 USB
PANSAT 21 Oct 10:04:31 10:07:44 26° 171° (S) 10:10:57 not established
RS-15 21 Oct 10:16:22 10:25:48 32° 255° (WSW) 10:35:37 29.354 - 29.394 USB, Beacon 29.352 USB
ZACube-1 21 Oct 10:18:29 10:21:05 16° 93° (E) 10:23:39 437.345 MHz
Saudisat 1A 21 Oct 10:24:16 10:24:35 10° 316° (NW) 10:24:54 436.775 MHz
UKube-1 21 Oct 10:29:57 10:34:18 65° 102° (ESE) 10:38:37 145.840 MHz, 145.915 MHz
MaSat-1 21 Oct 10:31:56 10:34:30 52° 65° (ENE) 10:36:51 437.345 MHz
FUNcube-1 21 Oct 11:02:54 11:07:06 55° 100° (E) 11:11:12 145.950 - 145.970 MHz USB
Oscar 11 21 Oct 11:15:24 11:19:24 38° 287° (WNW) 11:23:23 145.825 FM, Beacon 2401.500 USB
HO-68 21 Oct 11:27:38 11:33:20 26° 297° (WNW) 11:39:03 435.675 MHz FM
PANSAT 21 Oct 11:44:08 11:47:28 29° 184° (S) 11:50:49 not established
ZACube-1 21 Oct 11:53:43 11:57:35 34° 288° (WNW) 12:01:23 437.345 MHz
UKube-1 21 Oct 12:09:46 12:09:54 10° 296° (WNW) 12:10:02 145.840 MHz, 145.915 MHz
FUNcube-1 21 Oct 12:41:59 12:42:56 11° 295° (WNW) 12:43:52 145.950 - 145.970 MHz USB
KITSAT 1 21 Oct 12:44:02 12:51:58 63° 112° (ESE) 12:59:55 435.175 FM
Oscar 16 21 Oct 12:45:02 12:48:53 22° 67° (ENE) 12:52:43 437.025 USB, Beacon 2401.1428
ISS 21 Oct 12:59:28 13:01:52 19° 129° (SE) 13:04:17 145.800 FM
Uribyol 2 21 Oct 12:59:49 13:01:45 12° 62° (ENE) 13:03:42 436.500 FM
ITAMSAT 1 21 Oct 13:04:36 13:06:46 13° 63° (ENE) 13:08:56 435.822 SSB
AO-Echo 21 Oct 13:11:38 13:14:47 18° 65° (ENE) 13:18:00 ?
PANSAT 21 Oct 13:24:36 13:27:08 17° 197° (SSW) 13:29:40 not established
SO-50 21 Oct 13:26:21 13:30:32 42° 114° (ESE) 13:34:50 436.795 FM
Sapphire 21 Oct 13:33:05 13:37:38 26° 54° (NE) 13:42:08 437.095 MHz 1200 baud AX-25 AFSK
Oscar 19 21 Oct 13:37:37 13:42:45 70° 75° (ENE) 13:47:53 437.125 CW, 437.150 USB
AO-27 21 Oct 13:46:18 13:50:56 34° 70° (ENE) 13:55:36 436.795 MHz FM
PCSat 21 Oct 13:55:39 14:00:50 44° 59° (ENE) 14:05:59 145.825 MHz
JAS-1B 21 Oct 14:02:55 14:09:16 89° 254° (WSW) 14:15:01 435.800 - 435.900 CW/SSB
Oscar 16 21 Oct 14:23:06 14:27:55 39° 261° (W) 14:32:46 437.025 USB, Beacon 2401.1428
Oscar 10/S400 21 Oct 14:34:52 14:53:40 53° 157° (SSE) 15:21:06 145.825 - 145.975 CW/USB, Beacon 145.810 USB
ISS 21 Oct 14:35:18 14:38:22 34° 323° (NW) 14:41:28 145.800 FM
Uribyol 2 21 Oct 14:35:20 14:40:32 75° 258° (WSW) 14:45:47 436.500 FM
Gurwin Techsat 1B 21 Oct 14:38:10 14:43:19 54° 73° (ENE) 14:48:29 435.225 FM
ITAMSAT 1 21 Oct 14:40:25 14:45:35 71° 258° (WSW) 14:50:49 435.822 SSB
KITSAT 1 21 Oct 14:41:05 14:47:50 29° 311° (NW) 14:54:38 435.175 FM
AO-Echo 21 Oct 14:48:35 14:53:08 44° 261° (W) 14:57:52 ?
TMSAT-1 21 Oct 14:51:54 14:57:02 53° 73° (ENE) 15:02:11 436.925 FM
SO-50 21 Oct 15:08:01 15:11:16 19° 311° (NW) 15:14:35 436.795 FM
UOSAT-12 21 Oct 15:10:19 15:14:40 44° 114° (ESE) 15:19:07 437.025 FM, 437.400 FM
Sapphire 21 Oct 15:16:07 15:21:06 38° 251° (WSW) 15:26:03 437.095 MHz 1200 baud AX-25 AFSK
Oscar 19 21 Oct 15:21:06 15:22:30 11° 269° (W) 15:23:55 437.125 CW, 437.150 USB
AO-27 21 Oct 15:26:14 15:30:26 25° 264° (W) 15:34:40 436.795 MHz FM
AO-7 21 Oct 15:30:57 15:38:29 41° 64° (ENE) 15:46:02 29.400 - 29.500 MHz
PCSat 21 Oct 15:39:54 15:43:53 21° 254° (WSW) 15:47:51 145.825 MHz
JAS-2 21 Oct 16:19:26 16:22:23 14° 58° (ENE) 16:25:28 435.800 - 435.900 CW/SSB, 435.910 FM
Gurwin Techsat 1B 21 Oct 16:20:28 16:23:33 16° 267° (W) 16:26:40 435.225 FM
Uosat F 21 Oct 16:29:40 16:34:38 70° 75° (ENE) 16:39:39 435.120 FM
TMSAT-1 21 Oct 16:34:05 16:37:13 16° 267° (W) 16:40:21 436.925 FM
AO-40 21 Oct 16:44:08 23:25:14 48° 183° (S) 15:43:46 Beacon 2401.320
UOSAT-12 21 Oct 16:51:36 16:55:00 20° 311° (NW) 16:58:27 437.025 FM, 437.400 FM
Hamsat 21 Oct 16:55:22 16:57:08 12° 67° (ENE) 16:58:53 145.90 MHz
Saudisat 1A 21 Oct 17:10:02 17:13:53 28° 53° (NE) 17:17:42 436.775 MHz
AO-7 21 Oct 17:23:34 17:31:10 40° 260° (W) 17:38:49 29.400 - 29.500 MHz
JAS-2 21 Oct 18:00:49 18:06:25 77° 258° (WSW) 18:12:48 435.800 - 435.900 CW/SSB, 435.910 FM
OPAL 21 Oct 18:01:38 18:06:33 60° 103° (ESE) 18:11:25 ?
Uosat F 21 Oct 18:12:49 18:13:50 11° 269° (W) 18:14:52 435.120 FM
Hamsat 21 Oct 18:28:34 18:32:39 46° 261° (W) 18:36:42 145.90 MHz
Saudisat 1A 21 Oct 18:49:43 18:53:19 25° 249° (WSW) 18:56:54 436.775 MHz
SO-67 21 Oct 19:02:53 19:06:08 43° 75° (ENE) 19:09:25 435.3500 MHz FM
ISS 21 Oct 19:31:35 19:32:19 11° 23° (NNE) 19:33:02 145.800 FM
STRAND 1 21 Oct 19:40:09 19:45:17 65° 102° (ESE) 19:50:22 ?
OPAL 21 Oct 19:42:23 19:44:53 14° 298° (WNW) 19:47:23 ?
HO-68 21 Oct 20:04:53 20:10:51 30° 64° (ENE) 20:16:49 435.675 MHz FM
KITSAT 1 21 Oct 20:41:57 20:47:25 19° 42° (NE) 20:52:52 435.175 FM
ISS 21 Oct 21:06:16 21:09:35 62° 41° (NE) 21:12:52 145.800 FM
ZACube-1 21 Oct 21:13:50 21:14:45 11° 65° (ENE) 21:15:41 437.345 MHz
STRAND 1 21 Oct 21:21:26 21:23:52 14° 297° (WNW) 21:26:17 ?
UKube-1 21 Oct 21:22:21 21:26:20 36° 72° (ENE) 21:30:20 145.840 MHz, 145.915 MHz
HO-68 21 Oct 21:51:23 21:58:12 48° 260° (W) 22:05:05 435.675 MHz FM
FUNcube-1 21 Oct 21:55:55 21:59:59 32° 72° (ENE) 22:04:02 145.950 - 145.970 MHz USB
SO-50 21 Oct 22:01:21 22:04:53 20° 49° (NE) 22:08:25 436.795 FM
Oscar 11 21 Oct 22:06:39 22:10:59 77° 258° (WSW) 22:15:20 145.825 FM, Beacon 2401.500 USB
RS-15 21 Oct 22:22:23 22:33:04 57° 111° (ESE) 22:43:34 29.354 - 29.394 USB, Beacon 29.352 USB
KITSAT 1 21 Oct 22:35:53 22:44:00 85° 63° (ENE) 22:52:05 435.175 FM
ISS 21 Oct 22:45:33 22:45:51 10° 234° (SW) 22:46:09 145.800 FM
ZACube-1 21 Oct 22:45:57 22:50:32 68° 259° (W) 22:55:07 437.345 MHz
UKube-1 21 Oct 22:59:55 23:02:36 16° 266° (W) 23:05:19 145.840 MHz, 145.915 MHz
FUNcube-1 21 Oct 23:32:53 23:36:20 21° 265° (W) 23:39:48 145.950 - 145.970 MHz USB
SO-50 21 Oct 23:41:00 23:45:41 48° 245° (WSW) 23:50:22 436.795 FM
UOSAT-12 21 Oct 23:43:41 23:46:57 18° 48° (NE) 23:50:10 437.025 FM, 437.400 FM
MaSat-1 22 Oct 00:05:37 00:09:41 40° 109° (ESE) 00:13:28 437.345 MHz
KITSAT 1 22 Oct 00:33:46 00:38:21 16° 259° (W) 00:42:56 435.175 FM
RS-15 22 Oct 00:35:42 00:45:43 39° 312° (NW) 00:55:46 29.354 - 29.394 USB, Beacon 29.352 USB
UOSAT-12 22 Oct 01:22:50 01:27:22 49° 245° (WSW) 01:31:48 437.025 FM, 437.400 FM
